Flag for Moldova Weather past 2 weeks in Bălți, Moldova

Now
64 °F

Mild.


Feels Like: 64 °F
Forecast: 62 / 74 °F
Wind: 6 mph from North

Location: Baltsi-Leadoveni - The North of Moldova

Current Time: Jul 30, 2015 at 5:11:13 PM

Latest Report: Jul 30, 2015 at 4:00 PM


Visibility: N/A

Pressure: 29.89 "Hg

Humidity: 94%

Dew point: 63 °F

Location of BălțiLocation

Historic Weather in Bălți — Graph

°F

Bălți temperature yesterday

Maximum temperature yesterday: 90 °F (at 4:00 PM)
Minimum temperature yesterday: 64 °F (at 4:00 AM)
Average temperature yesterday: 79 °F

Past Weeks' High & Low Weather Summary

 TemperatureHumidityPressure
High95 °F (Jul 24, 5:30 PM)94% (Jul 28, 5:30 AM)30.15 "Hg (Jul 28, 5:30 AM)
Low57 °F (Jul 16, 5:00 AM)26% (Jul 26, 11:00 AM)29.65 "Hg (Jul 26, 4:30 PM)
Average78 °F50%29.91 "Hg
* Reported Jul 15 4:00 PM — Jul 30 4:00 PM, Bălți, Weather by CustomWeather, © 2015

Note: Actual official high and low records may vary slightly from our data, if they occured in-between our weather recording intervals... More about our weather records

Advertising

Bălți weather history for previous 24 hours

 ConditionsComfort  
Time TempWeatherWind HumidityBarometerVisibility
4:00 PM
Thu, Jul 30
64 °FMild.6 mph94%29.89 "HgN/A
3:00 PM70 °FMild.12 mph78%29.92 "HgN/A
2:00 PM70 °FMild.12 mph78%29.89 "HgN/A
1:30 PM68 °FMild.12 mph83%29.89 "HgN/A
1:00 PM68 °FMild.12 mph83%29.89 "HgN/A
12:00 PM77 °FWarm.12 mph57%29.89 "HgN/A
11:00 AM77 °FWarm.8 mph57%29.86 "HgN/A
10:00 AM77 °FWarm.8 mph57%29.86 "HgN/A
9:00 AM72 °FMild.6 mph69%29.86 "HgN/A
8:00 AM70 °FMild.5 mph73%29.83 "HgN/A
7:00 AM68 °FMild.5 mph78%29.83 "HgN/A
6:00 AM64 °FMild.6 mph83%29.83 "HgN/A
5:00 AM66 °FMild.5 mph78%29.80 "HgN/A
4:00 AM68 °FMild.6 mph73%29.80 "HgN/A
3:30 AM68 °FMild.9 mph78%29.80 "HgN/A
2:30 AM70 °FMild.6 mph69%29.80 "HgN/A
2:00 AM70 °FMild.5 mph69%29.80 "HgN/A
1:30 AM70 °FMild.7 mph69%29.80 "HgN/A
1:00 AM70 °FMild.12 mph69%29.80 "HgN/A
12:30 AM72 °FMild.7 mph65%29.80 "HgN/A
12:00 AM73 °FMild.9 mph61%29.77 "HgN/A
11:30 PM
Wed, Jul 29
77 °FWarm.12 mph54%29.77 "HgN/A
11:00 PM79 °FWarm.8 mph51%29.77 "HgN/A
10:30 PM81 °FWarm.8 mph45%29.77 "HgN/A
10:00 PM84 °FPleasantly warm.3 mph37%29.77 "HgN/A
9:00 PM86 °FPleasantly warm.5 mph38%29.77 "HgN/A
8:30 PM86 °FPleasantly warm.2 mph38%29.77 "HgN/A
8:00 PM86 °FPleasantly warm.3 mph35%29.77 "HgN/A
7:30 PM88 °FPleasantly warm.2 mph33%29.77 "HgN/A
7:00 PM88 °FPassing clouds.6 mph35%29.77 "HgN/A
6:30 PM88 °FPassing clouds.8 mph33%29.77 "HgN/A
6:00 PM88 °FPassing clouds.7 mph33%29.77 "HgN/A
5:30 PM90 °FPassing clouds.8 mph31%29.77 "HgN/A
5:00 PM88 °FPassing clouds.7 mph33%29.77 "HgN/A
Weather by CustomWeather, © 2015

See weather overviewHow to use our weather pages